DW0243 Weather Reports


time (UTC)temp
C
wind
direction
speed
KPH
gust
KPH
rain 1hr
cm
rain 24hr
cm
rain mn
cm
humidity
%
barometer
mb
20260902100343 20 239 4.8 14.5 0.00 0.03 0.03 60 1021.4
20260902095350 21 281 6.4 14.5 0.00 0.03 0.03 65 1021.2
20260902094343 20 209 3.2 14.5 0.00 0.03 0.03 67 1021.1
20260902093345 20 257 4.8 14.5 0.00 0.03 0.03 71 1021.2
20260902092345 19 267 3.2 9.7 0.00 0.03 0.03 77 1021.3
20260902085350 18 260 0.0 4.8 0.00 0.03 0.03 85 1021.5
20260902083342 16 259 0.0 4.8 0.00 0.03 0.03 92 1021.5
20260902082342 16 259 0.0 4.8 0.00 0.03 0.03 94 1021.5
20260902081342 15 259 0.0 4.8 0.00 0.03 0.03 93 1021.4
20260902080344 15 259 0.0 6.4 0.00 0.03 0.03 92 1021.5
20260902075341 13 259 1.6 6.4 0.00 0.03 0.03 91 1021.5
20260902074340 13 258 1.6 4.8 0.00 0.03 0.03 90 1021.3
20260902073341 13 258 0.0 0.0 0.00 0.03 0.03 90 1021.2
20260902072347 12 258 0.0 0.0 0.00 0.03 0.03 90 1021.1
20260902071340 12 258 0.0 0.0 0.00 0.03 0.03 90 1021.1
20260902070344 12 258 0.0 0.0 0.00 0.03 0.03 89 1021.1
20260902065339 11 258 0.0 0.0 0.00 0.03 0.03 90 1021.2
20260902064341 11 258 0.0 0.0 0.00 0.03 0.03 90 1021.1
20260902063346 11 258 0.0 0.0 0.00 0.03 0.03 90 1021.1
20260902062338 11 258 0.0 0.0 0.00 0.03 0.03 90 1021.2
20260902055347 10 258 0.0 0.0 0.00 0.03 0.03 91 1021.3
20260902053337 10 258 0.0 0.0 0.00 0.03 0.03 91 1021.2
20260902052338 10 258 0.0 0.0 0.00 0.03 0.03 91 1021.2
20260902051338 10 258 0.0 0.0 0.00 0.03 0.03 91 1021.2
20260902050340 10 258 0.0 0.0 0.00 0.03 0.03 91 1021.3
20260902045338 10 258 0.0 0.0 0.00 0.03 0.03 91 1021.3
20260902044341 10 258 0.0 0.0 0.00 0.03 0.03 91 1021.2
20260902043337 10 258 0.0 0.0 0.00 0.03 0.03 91 1021.2
20260902042336 10 258 0.0 0.0 0.00 0.03 0.03 91 1021.2
20260902041334 10 258 0.0 0.0 0.00 0.03 0.03 92 1021.2
20260902040334 10 258 0.0 0.0 0.00 0.03 0.03 92 1021.3
20260902035334 10 258 0.0 0.0 0.00 0.03 0.03 92 1021.4
20260902034340 10 258 0.0 0.0 0.03 0.03 0.03 92 1021.4
20260902033335 10 258 0.0 0.0 0.03 0.03 0.03 92 1021.6
20260902032335 10 258 0.0 0.0 0.03 0.03 0.03 92 1021.8
20260902031337 10 258 0.0 3.2 0.03 0.03 0.03 92 1021.6
20260902030345 10 258 0.0 0.0 0.03 0.03 0.03 92 1021.5
20260902025334 11 258 0.0 0.0 0.03 0.00 0.03 92 1021.7
20260902024336 11 258 0.0 0.0 0.00 0.00 0.00 92 1021.6
20260902023334 11 258 0.0 0.0 0.00 0.00 0.00 92 1021.6
20260902022334 11 258 0.0 0.0 0.00 0.00 0.00 93 1021.8
20260902021333 11 258 0.0 0.0 0.00 0.00 0.00 93 1021.6
20260902020333 11 258 0.0 0.0 0.00 0.00 0.00 93 1021.6
20260902015335 11 258 0.0 0.0 0.00 0.00 0.00 93 1021.6
20260902014340 11 258 0.0 0.0 0.00 0.00 0.00 93 1021.7
20260902013333 11 258 0.0 0.0 0.00 0.00 0.00 93 1021.8
20260902012332 11 258 0.0 0.0 0.00 0.00 0.00 93 1021.7
20260902011334 11 258 0.0 0.0 0.00 0.00 0.00 93 1021.7
20260902010336 11 258 0.0 0.0 0.00 0.00 0.00 94 1021.7
20260902005331 10 258 0.0 0.0 0.00 0.00 0.00 94 1021.6
20260902002339 11 258 0.0 0.0 0.00 0.00 0.00 94 1021.5
20260902000331 11 258 0.0 0.0 0.00 0.00 0.00 94 1021.6
20260901235331 11 258 0.0 0.0 0.00 0.00 0.00 94 1021.9
20260901233331 12 258 0.0 0.0 0.00 0.00 0.00 94 1022.1
20260901232332 12 258 0.0 0.0 0.00 0.00 0.00 94 1022.1
20260901231329 12 258 0.0 0.0 0.00 0.00 0.00 94 1022.0
20260901230335 12 258 0.0 0.0 0.00 0.00 0.00 94 1021.9
20260901225331 12 258 0.0 0.0 0.00 0.00 0.00 94 1022.1
20260901224330 12 258 0.0 0.0 0.00 0.00 0.00 94 1022.1
20260901222330 12 258 0.0 0.0 0.00 0.00 0.00 94 1021.9
20260901221327 12 258 0.0 0.0 0.00 0.00 0.00 94 1021.9
20260901220328 12 258 0.0 0.0 0.00 0.00 0.00 94 1021.9
20260901213328 13 258 0.0 0.0 0.00 0.00 0.00 94 1021.8
20260901211328 13 258 0.0 0.0 0.00 0.00 0.00 93 1021.6
20260901205329 13 258 0.0 0.0 0.00 0.00 0.00 92 1021.6
20260901203327 14 258 0.0 0.0 0.00 0.00 0.00 92 1021.7
20260901201327 15 0 0.0 0.0 0.00 0.00 0.00 91 1021.6
20260901200328 15 0 0.0 0.0 0.00 0.00 0.00 91 1021.7
20260901195327 15 0 0.0 0.0 0.00 0.00 0.00 90 1021.7
20260901194344 15 0 0.0 0.0 0.00 0.00 0.00 89 1021.6
20260901191328 16 0 0.0 0.0 0.00 0.00 0.00 86 1021.4
20260901190331 16 0 0.0 0.0 0.00 0.00 0.00 85 1021.4
20260901184321 17 0 0.0 0.0 0.00 0.00 0.00 84 1021.3
20260901183321 17 0 0.0 0.0 0.00 0.00 0.00 82 1021.2
20260901182335 17 0 0.0 3.2 0.00 0.00 0.00 80 1021.1
20260901182227 18 0 0.0 3.2 0.00 0.00 0.00 80 1021.1
20260901181419 18 258 1.6 6.4 0.00 0.00 0.00 78 1021.0
20260901180418 18 258 3.2 6.4 0.00 0.00 0.00 76 1020.7
20260901175405 18 257 3.2 6.4 0.00 0.00 0.00 76 1020.7
20260901173412 19 259 3.2 9.7 0.00 0.00 0.00 74 1020.6
20260901172408 19 269 1.6 8.0 0.00 0.00 0.00 72 1020.7
20260901170411 20 252 4.8 12.9 0.00 0.00 0.00 71 1020.7
20260901165404 20 304 1.6 14.5 0.00 0.00 0.00 73 1020.8
20260901164410 20 244 1.6 9.7 0.00 0.00 0.00 75 1020.8
20260901163406 19 290 1.6 6.4 0.00 0.00 0.00 76 1020.8
20260901162406 19 290 1.6 11.3 0.00 0.00 0.00 77 1020.9
20260901161409 19 288 3.2 11.3 0.00 0.00 0.00 75 1020.8
20260901160404 19 294 3.2 9.7 0.00 0.10 0.00 76 1020.9
20260901155407 19 336 6.4 19.3 0.00 1.14 0.00 75 1020.8
20260901154408 20 292 9.7 17.7 0.00 1.17 0.00 74 1020.7
20260901152406 21 267 1.6 14.5 0.00 1.19 0.00 69 1020.5
20260901151407 21 273 3.2 11.3 0.00 1.19 0.00 70 1020.5
20260901145409 20 271 6.4 16.1 0.00 1.19 0.00 72 1020.4
20260901144407 20 317 8.0 17.7 0.00 1.19 0.00 74 1020.3
20260901143411 20 311 8.0 17.7 0.00 1.19 0.00 74 1020.4
20260901142419 21 281 9.7 17.7 0.00 1.19 0.00 70 1020.5
20260901141412 21 274 4.8 16.1 0.00 1.22 0.00 64 1020.5
20260901140422 21 264 6.4 14.5 0.00 1.22 0.00 65 1020.3
20260901135408 21 239 3.2 12.9 0.00 1.22 0.00 64 1020.3
20260901133411 22 190 0.0 12.9 0.00 1.22 0.00 63 1020.4
20260901132407 22 161 11.3 19.3 0.00 1.22 0.00 64 1020.4
20260901131405 22 256 3.2 16.1 0.00 1.22 0.00 63 1020.4
20260901130403 23 248 3.2 14.5 0.00 1.22 0.00 65 1020.4
20260901125402 22 254 9.7 14.5 0.00 1.22 0.00 64 1020.6
20260901124407 22 163 0.0 11.3 0.00 1.22 0.00 67 1020.5
20260901122357 21 209 4.8 11.3 0.00 1.22 0.00 67 1020.6
20260901121401 22 255 4.8 14.5 0.00 1.22 0.00 65 1020.8
20260901120358 22 263 4.8 14.5 0.00 1.22 0.00 68 1020.7
20260901115358 21 186 1.6 11.3 0.00 1.22 0.00 72 1020.6
20260901114400 21 288 1.6 8.0 0.00 1.22 0.00 73 1020.8
20260901113409 20 292 3.2 11.3 0.00 1.22 0.00 75 1020.9
20260901112359 20 277 1.6 11.3 0.00 1.22 0.00 77 1021.1
20260901111354 20 265 6.4 12.9 0.00 1.22 0.00 75 1021.1
20260901105352 19 205 4.8 16.1 0.00 1.22 0.00 78 1021.0
20260901104351 20 260 9.7 17.7 0.00 1.22 0.00 75 1021.1
20260901102349 20 147 3.2 8.0 0.00 1.22 0.00 76 1021.0